Total_Precipitation_Accumulation
2.10 2.31 2.32 2.32 2.39 2.46 2.30 2.04 1.95 1.96 2.03 2.10 2.29 2.35 2.30 2.33 2.44 2.51 2.46 2.77 2.91 2.94 2.92 2.91 2.88 3.01 3.00 2.90 3.00 3.18 3.46 3.55 3.18 2.61 2.48 2.43 2.43 2.32 2.34 2.21 2.08 2.04 1.86
2.03 2.22 2.28 2.26 2.30 2.33 2.19 2.01 1.98 2.02 2.08 2.08 2.19 2.23 2.13 2.15 2.35 2.38 2.42 2.70 2.86 2.75 2.74 2.75 2.54 2.60 2.68 2.56 2.70 2.78 2.92 3.19 3.12 2.78 2.70 2.65 2.60 2.48 2.48 2.45 2.23 2.01 1.74
1.94 2.22 2.39 2.43 2.39 2.31 2.11 1.89 1.82 1.82 1.91 1.95 1.98 2.02 2.07 2.21 2.30 2.29 2.31 2.32 2.35 2.42 2.64 2.75 2.54 2.53 2.43 2.43 2.46 2.44 2.53 2.65 2.90 2.82 2.67 2.71 2.64 2.63 2.55 2.34 2.18 2.09 1.73
1.84 2.05 2.19 2.08 2.03 2.01 1.90 1.75 1.69 1.70 1.75 1.81 1.89 1.99 2.06 2.14 2.18 2.25 2.31 2.23 2.21 2.26 2.40 2.47 2.45 2.41 2.34 2.44 2.34 2.33 2.42 2.59 2.72 2.76 2.66 2.76 2.75 2.70 2.72 2.48 2.47 2.34 2.12
1.49 1.60 1.74 1.73 1.72 1.71 1.78 1.81 1.81 1.86 1.81 1.89 1.96 1.97 1.96 1.95 1.88 1.94 2.02 2.03 2.16 2.11 2.02 2.04 2.06 2.11 2.09 2.12 1.98 2.15 2.40 2.54 2.59 2.60 2.60 2.78 2.92 2.93 2.75 2.67 2.73 2.70 2.47
1.27 1.37 1.60 1.73 1.75 1.74 1.81 1.94 1.96 1.91 1.91 1.94 1.89 1.94 1.94 1.67 1.85 1.89 1.89 1.99 2.07 2.07 1.99 1.88 1.79 1.78 1.70 1.70 1.65 1.75 2.04 2.27 2.40 2.54 2.52 2.62 2.85 3.05 3.17 3.13 2.99 2.86 2.78
1.37 1.51 1.70 1.81 1.89 1.90 1.87 2.00 1.96 1.96 2.03 1.99 1.91 1.92 1.94 1.99 2.05 1.88 1.75 1.72 1.83 1.88 1.85 1.82 1.60 1.51 1.68 1.65 1.68 1.66 1.69 1.85 2.01 2.22 2.32 2.27 2.47 2.79 3.06 2.99 3.13 3.17 3.07
1.65 1.83 1.93 2.05 2.00 1.97 1.97 2.00 2.09 2.18 2.23 2.20 2.13 2.05 2.03 2.00 2.01 1.82 1.83 1.74 1.75 1.75 1.76 1.80 1.79 1.70 1.76 1.88 1.84 1.76 1.64 1.59 1.69 1.77 1.89 2.02 2.26 2.59 2.87 2.85 2.92 3.03 3.05
1.80 1.90 2.05 2.14 2.19 2.19 2.19 2.17 2.26 2.38 2.34 2.26 2.21 2.22 2.16 2.18 2.26 2.07 2.10 1.93 1.91 1.91 1.95 1.95 1.92 1.82 1.96 1.93 1.81 1.78 1.72 1.70 1.77 1.86 1.81 1.92 2.17 2.32 2.51 2.62 2.59 2.66 2.59
1.78 1.89 2.07 2.29 2.35 2.36 2.50 2.60 2.55 2.50 2.36 2.37 2.36 2.34 2.34 2.39 2.64 2.45 2.28 2.10 2.09 2.09 2.18 2.16 2.20 2.05 2.05 1.98 1.81 1.81 1.82 1.84 1.95 1.90 1.86 1.81 1.85 2.07 2.33 2.36 2.54 2.72 2.59
1.81 1.96 2.14 2.31 2.40 2.48 2.65 2.73 2.69 2.63 2.60 2.57 2.50 2.55 2.54 2.53 2.70 2.47 2.27 2.12 2.17 2.31 2.30 2.21 2.26 2.30 2.09 2.10 2.04 1.93 1.91 1.92 1.92 1.94 1.93 1.90 1.91 2.01 2.12 2.24 2.49 2.68 2.66
1.76 1.90 2.03 2.18 2.20 2.30 2.57 2.66 2.75 2.76 2.72 2.63 2.58 2.45 2.48 2.46 2.39 2.26 2.17 2.14 2.22 2.32 2.38 2.31 2.28 2.29 2.07 2.00 1.86 1.82 1.86 1.76 1.67 1.77 1.79 1.81 1.83 1.84 1.93 2.14 2.35 2.41 2.43
1.84 1.97 2.11 2.19 2.25 2.35 2.47 2.52 2.61 2.67 2.62 2.50 2.52 2.47 2.42 2.41 2.38 2.16 1.95 1.93 1.98 2.00 2.13 2.28 2.22 2.12 1.92 1.72 1.67 1.64 1.55 1.43 1.43 1.48 1.46 1.47 1.55 1.64 1.75 1.90 2.12 2.23 2.21
1.94 2.00 2.09 2.20 2.20 2.28 2.40 2.52 2.63 2.73 2.80 2.67 2.54 2.43 2.41 2.37 2.24 2.06 1.88 1.80 1.91 2.03 2.12 2.18 2.07 1.96 1.77 1.61 1.51 1.41 1.35 1.42 1.45 1.43 1.44 1.51 1.58 1.63 1.64 1.70 1.84 1.98 2.01
1.88 1.95 1.98 2.02 2.12 2.24 2.30 2.41 2.39 2.45 2.48 2.46 2.39 2.36 2.35 2.27 2.12 2.04 1.85 1.74 1.86 2.04 2.11 2.11 1.97 1.91 1.80 1.70 1.62 1.56 1.54 1.55 1.51 1.49 1.54 1.53 1.53 1.58 1.56 1.56 1.67 1.69 1.65
1.93 1.96 1.90 1.86 1.94 2.02 2.11 2.13 2.14 2.03 2.02 1.96 1.97 1.95 1.88 1.79 1.69 1.57 1.55 1.57 1.66 1.84 1.85 1.90 1.99 1.95 1.88 1.80 1.70 1.62 1.58 1.55 1.51 1.53 1.58 1.57 1.54 1.52 1.57 1.54 1.57 1.60 1.53
1.84 1.88 1.88 1.87 1.90 1.92 2.01 1.98 2.00 1.92 1.82 1.73 1.67 1.68 1.72 1.68 1.62 1.61 1.63 1.68 1.65 1.71 1.64 1.74 1.85 1.83 1.81 1.76 1.63 1.51 1.48 1.50 1.59 1.58 1.59 1.59 1.63 1.62 1.65 1.61 1.58 1.62 1.58
1.58 1.68 1.81 1.90 1.94 1.95 2.01 2.07 2.14 2.16 2.05 1.83 1.69 1.63 1.56 1.54 1.49 1.53 1.62 1.59 1.51 1.51 1.54 1.67 1.73 1.69 1.65 1.61 1.57 1.52 1.51 1.55 1.64 1.61 1.60 1.62 1.65 1.65 1.66 1.65 1.60 1.57 1.58
1.50 1.52 1.55 1.63 1.74 1.83 1.83 1.88 1.95 2.04 2.05 1.94 1.80 1.69 1.63 1.56 1.47 1.44 1.40 1.27 1.30 1.42 1.56 1.61 1.65 1.64 1.54 1.47 1.45 1.41 1.42 1.49 1.57 1.63 1.61 1.67 1.71 1.74 1.72 1.68 1.69 1.72 1.63
1.52 1.55 1.52 1.48 1.48 1.54 1.61 1.68 1.76 1.87 1.94 1.91 1.83 1.72 1.63 1.53 1.31 1.22 1.15 1.12 1.20 1.28 1.35 1.39 1.43 1.41 1.32 1.34 1.39 1.37 1.35 1.43 1.55 1.61 1.59 1.65 1.72 1.73 1.65 1.62 1.61 1.64 1.56
1.52 1.51 1.51 1.50 1.50 1.53 1.59 1.66 1.69 1.75 1.80 1.72 1.61 1.52 1.45 1.27 1.14 1.05 1.05 1.09 1.17 1.24 1.30 1.36 1.36 1.30 1.29 1.34 1.41 1.44 1.41 1.46 1.55 1.59 1.61 1.65 1.72 1.74 1.66 1.61 1.58 1.61 1.62
1.53 1.46 1.41 1.41 1.48 1.53 1.60 1.68 1.72 1.72 1.66 1.58 1.50 1.39 1.34 1.17 1.08 1.06 1.08 1.12 1.18 1.28 1.33 1.34 1.37 1.34 1.30 1.32 1.41 1.48 1.51 1.54 1.58 1.60 1.57 1.60 1.69 1.73 1.76 1.73 1.74 1.75 1.77
1.63 1.52 1.45 1.44 1.46 1.49 1.52 1.57 1.62 1.59 1.53 1.43 1.33 1.26 1.19 1.14 1.07 1.09 1.14 1.22 1.29 1.30 1.27 1.26 1.28 1.28 1.27 1.30 1.31 1.39 1.47 1.52 1.54 1.55 1.61 1.65 1.65 1.65 1.67 1.64 1.66 1.68 1.70
1.67 1.57 1.46 1.38 1.40 1.43 1.47 1.54 1.54 1.48 1.40 1.34 1.30 1.27 1.22 1.23 1.19 1.18 1.24 1.31 1.26 1.17 1.14 1.16 1.18 1.16 1.18 1.24 1.25 1.26 1.31 1.41 1.42 1.41 1.43 1.49 1.51 1.53 1.60 1.60 1.61 1.63 1.70
1.64 1.58 1.47 1.37 1.36 1.38 1.41 1.48 1.51 1.48 1.41 1.31 1.27 1.29 1.34 1.40 1.34 1.29 1.27 1.26 1.18 1.08 1.03 1.10 1.14 1.12 1.14 1.15 1.19 1.21 1.28 1.30 1.28 1.29 1.31 1.37 1.43 1.51 1.58 1.60 1.62 1.63 1.68
1.46 1.37 1.30 1.24 1.22 1.27 1.34 1.42 1.46 1.49 1.49 1.43 1.42 1.42 1.37 1.35 1.31 1.25 1.21 1.19 1.15 1.10 1.05 1.08 1.13 1.13 1.17 1.16 1.09 1.11 1.12 1.05 1.07 1.16 1.14 1.18 1.32 1.45 1.54 1.63 1.65 1.69 1.69